NSZ3858 EKBI-EGPH

Flight info

Callsign NSZ3858
Flight time 1h 19m
Altitude 38000
Route BAMPI DCT EVAKI DCT TINAC DCT ITSUX DCT AGPED
Aircraft A320/M-SDFGHIJ1RWXY/L

Departure

Time 2026-05-07 09:44
Airport Billund Airport (EKBI)

Arrival

Time 2026-05-07 11:03
Airport Edinburgh Airport (EGPH)
Time Latitude Longitude Altitude Speed Heading
2026-05-07 08:55 55.74527 9.14618 216 ft 0 kts 357°
2026-05-07 09:29 55.74521 9.14619 241 ft 4 kts 357°
2026-05-07 09:29 55.74494 9.14621 212 ft 4 kts 358°
2026-05-07 09:29 55.74467 9.14621 221 ft 4 kts
2026-05-07 09:29 55.74444 9.14598 221 ft 2 kts 86°
2026-05-07 09:30 55.74444 9.14596 220 ft 0 kts 87°
2026-05-07 09:35 55.74444 9.14619 219 ft 6 kts 87°
2026-05-07 09:35 55.74447 9.14713 216 ft 9 kts 87°
2026-05-07 09:35 55.74451 9.14842 216 ft 12 kts 86°
2026-05-07 09:35 55.74435 9.14968 223 ft 12 kts 140°
2026-05-07 09:36 55.74346 9.14985 219 ft 14 kts 176°
2026-05-07 09:36 55.74242 9.14996 216 ft 13 kts 176°
2026-05-07 09:36 55.74199 9.15079 216 ft 12 kts 89°
2026-05-07 09:36 55.74203 9.15241 216 ft 15 kts 86°
2026-05-07 09:37 55.74209 9.15439 219 ft 18 kts 87°
2026-05-07 09:37 55.74216 9.15658 216 ft 15 kts 87°
2026-05-07 09:37 55.74222 9.15848 216 ft 14 kts 87°
2026-05-07 09:37 55.74227 9.16034 216 ft 17 kts 87°
2026-05-07 09:38 55.74232 9.16177 216 ft 12 kts 87°
2026-05-07 09:38 55.74237 9.16346 219 ft 15 kts 87°
2026-05-07 09:38 55.74243 9.16551 216 ft 18 kts 86°
2026-05-07 09:38 55.74249 9.16729 216 ft 12 kts 87°
2026-05-07 09:39 55.74254 9.16889 216 ft 14 kts 87°
2026-05-07 09:39 55.74260 9.17084 216 ft 17 kts 87°
2026-05-07 09:39 55.74267 9.17316 216 ft 20 kts 86°
2026-05-07 09:39 55.74275 9.17560 216 ft 15 kts 87°
2026-05-07 09:40 55.74281 9.17761 224 ft 18 kts 87°
2026-05-07 09:40 55.74286 9.17926 216 ft 10 kts 86°
2026-05-07 09:40 55.74283 9.18047 216 ft 10 kts 107°
2026-05-07 09:40 55.74248 9.18128 220 ft 6 kts 142°
2026-05-07 09:41 55.74218 9.18150 219 ft 3 kts 168°
2026-05-07 09:41 55.74189 9.18151 219 ft 6 kts 180°
2026-05-07 09:41 55.74138 9.18141 216 ft 8 kts 207°
2026-05-07 09:41 55.74123 9.18065 216 ft 2 kts 267°
2026-05-07 09:42 55.74123 9.18064 216 ft 0 kts 267°
2026-05-07 09:43 55.74120 9.17989 225 ft 30 kts 267°
2026-05-07 09:43 55.74095 9.17154 216 ft 101 kts 267°
2026-05-07 09:44 55.74046 9.15586 218 ft 152 kts 266°
2026-05-07 09:44 55.73980 9.13634 721 ft 157 kts 264°
2026-05-07 09:44 55.74039 9.11708 1445 ft 161 kts 291°
2026-05-07 09:44 55.74646 9.09946 1919 ft 177 kts 305°
2026-05-07 09:45 55.75468 9.08129 2277 ft 200 kts 307°
2026-05-07 09:45 55.76397 9.06121 2716 ft 220 kts 307°
2026-05-07 09:45 55.77405 9.03915 3258 ft 240 kts 307°
2026-05-07 09:45 55.78484 9.01496 3958 ft 257 kts 307°
2026-05-07 09:46 55.79388 8.98741 4926 ft 262 kts 288°
2026-05-07 09:46 55.79778 8.95581 5942 ft 263 kts 276°
2026-05-07 09:46 55.79935 8.92327 6940 ft 265 kts 272°
2026-05-07 09:46 55.80023 8.89028 7868 ft 269 kts 272°
2026-05-07 09:47 55.80119 8.85671 8758 ft 275 kts 274°
2026-05-07 09:47 55.80243 8.82237 9605 ft 281 kts 275°
2026-05-07 09:47 55.80401 8.78727 10342 ft 292 kts 276°
2026-05-07 09:47 55.80596 8.74992 10647 ft 315 kts 276°
2026-05-07 09:48 55.80818 8.71035 11165 ft 327 kts 276°
2026-05-07 09:48 55.81053 8.66991 11931 ft 330 kts 277°
2026-05-07 09:48 55.81332 8.62922 12728 ft 333 kts 278°
2026-05-07 09:48 55.81661 8.58827 13526 ft 336 kts 278°
2026-05-07 09:49 55.82015 8.54704 14270 ft 339 kts 278°
2026-05-07 09:49 55.82375 8.50544 14940 ft 342 kts 278°
2026-05-07 09:49 55.82731 8.46348 15619 ft 344 kts 278°
2026-05-07 09:49 55.83081 8.42123 16298 ft 347 kts 278°
2026-05-07 09:50 55.83426 8.37864 16983 ft 349 kts 278°
2026-05-07 09:50 55.83765 8.33572 17667 ft 352 kts 278°
2026-05-07 09:50 55.84327 8.29317 18330 ft 355 kts 289°
2026-05-07 09:50 55.85384 8.25331 18912 ft 359 kts 301°
2026-05-07 09:51 55.86907 8.21780 19492 ft 363 kts 311°
2026-05-07 09:51 55.88623 8.18457 20095 ft 366 kts 311°
2026-05-07 09:51 55.90348 8.15090 20678 ft 369 kts 311°
2026-05-07 09:51 55.92078 8.11695 21241 ft 372 kts 311°
2026-05-07 09:52 55.93822 8.08264 21777 ft 375 kts 311°
2026-05-07 09:52 55.95576 8.04799 22313 ft 378 kts 310°
2026-05-07 09:52 55.97342 8.01306 22849 ft 380 kts 310°
2026-05-07 09:52 55.99121 7.97785 23381 ft 383 kts 310°
2026-05-07 09:53 56.00915 7.94230 23878 ft 386 kts 311°
2026-05-07 09:53 56.02717 7.90656 24338 ft 388 kts 311°
2026-05-07 09:53 56.04527 7.87059 24792 ft 390 kts 311°
2026-05-07 09:53 56.06346 7.83439 25255 ft 392 kts 310°
2026-05-07 09:54 56.08169 7.79798 25722 ft 393 kts 310°
2026-05-07 09:54 56.09998 7.76141 26190 ft 395 kts 311°
2026-05-07 09:54 56.11838 7.72469 26629 ft 397 kts 311°
2026-05-07 09:54 56.13685 7.68774 27056 ft 399 kts 311°
2026-05-07 09:55 56.15542 7.65048 27478 ft 402 kts 311°
2026-05-07 09:55 56.17407 7.61300 27887 ft 404 kts 311°
2026-05-07 09:55 56.19280 7.57527 28300 ft 406 kts 311°
2026-05-07 09:55 56.21107 7.53643 28716 ft 408 kts 305°
2026-05-07 09:56 56.22559 7.49252 29114 ft 411 kts 295°
2026-05-07 09:56 56.23546 7.44428 29515 ft 414 kts 285°
2026-05-07 09:56 56.24040 7.39311 29879 ft 418 kts 275°
2026-05-07 09:56 56.24134 7.34061 30231 ft 422 kts 272°
2026-05-07 09:57 56.24201 7.28767 30566 ft 425 kts 272°
2026-05-07 09:57 56.24270 7.23441 30910 ft 427 kts 272°
2026-05-07 09:57 56.24337 7.18091 31256 ft 429 kts 272°
2026-05-07 09:57 56.24403 7.12719 31604 ft 431 kts 272°
2026-05-07 09:58 56.24469 7.07339 32077 ft 430 kts 272°
2026-05-07 09:58 56.24531 7.01977 32586 ft 428 kts 272°
2026-05-07 09:58 56.24589 6.96628 33089 ft 427 kts 272°
2026-05-07 09:58 56.24642 6.91298 33591 ft 425 kts 272°
2026-05-07 09:59 56.24694 6.85990 34100 ft 424 kts 272°
2026-05-07 09:59 56.24745 6.80703 34548 ft 422 kts 272°
2026-05-07 09:59 56.24793 6.75428 34948 ft 422 kts 272°
2026-05-07 09:59 56.24837 6.70157 35317 ft 422 kts 272°
2026-05-07 10:00 56.24879 6.64878 35671 ft 421 kts 272°
2026-05-07 10:00 56.24918 6.59614 36010 ft 421 kts 271°
2026-05-07 10:00 56.24953 6.54349 36368 ft 421 kts 271°
2026-05-07 10:00 56.24987 6.49086 36705 ft 421 kts 271°
2026-05-07 10:01 56.25026 6.43818 37036 ft 421 kts 271°
2026-05-07 10:01 56.25060 6.38625 37351 ft 421 kts 271°
2026-05-07 10:01 56.25091 6.33355 37670 ft 421 kts 270°
2026-05-07 10:01 56.25118 6.28094 37982 ft 421 kts 270°
2026-05-07 10:02 56.25140 6.22816 38108 ft 422 kts 270°
2026-05-07 10:02 56.25181 6.12258 38123 ft 422 kts 270°
2026-05-07 10:03 56.25212 6.01699 38123 ft 422 kts 270°
2026-05-07 10:03 56.25236 5.91134 38124 ft 422 kts 270°
2026-05-07 10:04 56.25255 5.80567 38125 ft 422 kts 270°
2026-05-07 10:04 56.25267 5.70003 38133 ft 423 kts 270°
2026-05-07 10:05 56.25265 5.59428 38130 ft 424 kts 270°
2026-05-07 10:05 56.25247 5.48821 38129 ft 424 kts 270°
2026-05-07 10:06 56.25231 5.38205 38130 ft 425 kts 270°
2026-05-07 10:06 56.25209 5.27582 38133 ft 425 kts 270°
2026-05-07 10:07 56.25169 5.16948 38135 ft 425 kts 269°
2026-05-07 10:07 56.25111 5.06314 38137 ft 425 kts 269°
2026-05-07 10:08 56.24552 4.95762 38142 ft 425 kts 257°
2026-05-07 10:08 56.23220 4.85408 38143 ft 425 kts 257°
2026-05-07 10:09 56.21882 4.75056 38146 ft 425 kts 257°
2026-05-07 10:09 56.20533 4.64706 38129 ft 425 kts 257°
2026-05-07 10:10 56.19181 4.54359 38135 ft 426 kts 257°
2026-05-07 10:10 56.17825 4.44014 38131 ft 426 kts 257°
2026-05-07 10:11 56.16457 4.33653 38138 ft 427 kts 257°
2026-05-07 10:11 56.15073 4.23296 38139 ft 427 kts 257°
2026-05-07 10:12 56.13680 4.13000 38144 ft 427 kts 257°
2026-05-07 10:12 56.12279 4.02643 38146 ft 428 kts 257°
2026-05-07 10:13 56.10870 3.92293 38147 ft 428 kts 256°
2026-05-07 10:13 56.09452 3.81937 38131 ft 428 kts 256°
2026-05-07 10:14 56.08018 3.71577 38131 ft 429 kts 256°
2026-05-07 10:14 56.06570 3.61226 38124 ft 429 kts 256°
2026-05-07 10:15 56.05115 3.50879 38127 ft 429 kts 256°
2026-05-07 10:15 56.03889 3.42284 38130 ft 429 kts 256°
2026-05-07 10:16 56.02386 3.31964 38140 ft 429 kts 256°
2026-05-07 10:16 56.00869 3.21661 38138 ft 428 kts 256°
2026-05-07 10:17 55.99342 3.11381 38145 ft 428 kts 256°
2026-05-07 10:17 55.97814 3.01107 38144 ft 428 kts 256°
2026-05-07 10:18 55.96287 2.90839 38143 ft 428 kts 255°
2026-05-07 10:18 55.94746 2.80582 38150 ft 428 kts 255°
2026-05-07 10:19 55.93195 2.70343 38144 ft 427 kts 255°
2026-05-07 10:19 55.91638 2.60124 38143 ft 427 kts 255°
2026-05-07 10:20 55.90074 2.49923 38144 ft 427 kts 255°
2026-05-07 10:20 55.88501 2.39736 38141 ft 426 kts 255°
2026-05-07 10:21 55.86915 2.29563 38138 ft 426 kts 255°
2026-05-07 10:21 55.85327 2.19396 38144 ft 426 kts 255°
2026-05-07 10:22 55.83736 2.09250 38139 ft 425 kts 255°
2026-05-07 10:22 55.82137 1.99121 38140 ft 425 kts 255°
2026-05-07 10:23 55.80532 1.89011 38138 ft 425 kts 255°
2026-05-07 10:23 55.78919 1.78909 38129 ft 425 kts 255°
2026-05-07 10:24 55.77295 1.68826 38128 ft 425 kts 255°
2026-05-07 10:24 55.75661 1.58743 38116 ft 425 kts 254°
2026-05-07 10:25 55.74018 1.48649 38111 ft 426 kts 254°
2026-05-07 10:25 55.72371 1.38560 38114 ft 426 kts 254°
2026-05-07 10:26 55.70702 1.28463 38115 ft 426 kts 254°
2026-05-07 10:26 55.69028 1.18383 38116 ft 426 kts 254°
2026-05-07 10:27 55.67346 1.08304 38118 ft 426 kts 253°
2026-05-07 10:27 55.65670 0.98294 38085 ft 428 kts 253°
2026-05-07 10:28 55.63971 0.88164 38077 ft 430 kts 253°
2026-05-07 10:28 55.62260 0.78038 38101 ft 429 kts 253°
2026-05-07 10:29 55.60530 0.67938 38108 ft 429 kts 253°
2026-05-07 10:29 55.58795 0.57845 38102 ft 429 kts 253°
2026-05-07 10:30 55.56189 0.42723 38114 ft 428 kts 253°
2026-05-07 10:30 55.54440 0.32690 38113 ft 427 kts 253°
2026-05-07 10:31 55.52682 0.22691 38111 ft 426 kts 253°
2026-05-07 10:31 55.50926 0.12698 38086 ft 426 kts 252°
2026-05-07 10:32 55.49169 0.02712 38088 ft 427 kts 252°
2026-05-07 10:32 55.47385 -0.07272 38083 ft 426 kts 251°
2026-05-07 10:33 55.45598 -0.17221 38097 ft 426 kts 251°
2026-05-07 10:33 55.43807 -0.27153 38105 ft 425 kts 251°
2026-05-07 10:34 55.42013 -0.37081 38097 ft 425 kts 251°
2026-05-07 10:34 55.40222 -0.46960 37570 ft 423 kts 251°
2026-05-07 10:35 55.39325 -0.51893 37166 ft 423 kts 251°
2026-05-07 10:35 55.38428 -0.56813 36893 ft 422 kts 251°
2026-05-07 10:35 55.37527 -0.61730 36624 ft 423 kts 251°
2026-05-07 10:35 55.36621 -0.66654 36356 ft 425 kts 251°
2026-05-07 10:36 55.35710 -0.71585 36135 ft 424 kts 251°
2026-05-07 10:36 55.34807 -0.76452 36044 ft 423 kts 251°
2026-05-07 10:36 55.32981 -0.86289 36071 ft 423 kts 251°
2026-05-07 10:37 55.31160 -0.96087 36062 ft 421 kts 251°
2026-05-07 10:37 55.29327 -1.05864 36064 ft 421 kts 251°
2026-05-07 10:38 55.28408 -1.10733 35850 ft 419 kts 251°
2026-05-07 10:38 55.27493 -1.15577 35278 ft 418 kts 251°
2026-05-07 10:38 55.26579 -1.20402 34823 ft 414 kts 251°
2026-05-07 10:38 55.25666 -1.25217 34128 ft 417 kts 251°
2026-05-07 10:39 55.24745 -1.30062 33236 ft 422 kts 251°
2026-05-07 10:39 55.23536 -1.34745 32413 ft 424 kts 236°
2026-05-07 10:39 55.21573 -1.38514 32109 ft 417 kts 222°
2026-05-07 10:39 55.19359 -1.41794 32016 ft 416 kts 220°
2026-05-07 10:40 55.14924 -1.48248 32032 ft 417 kts 220°
2026-05-07 10:40 55.10486 -1.54723 31554 ft 413 kts 224°
2026-05-07 10:41 55.08678 -1.58556 31064 ft 407 kts 239°
2026-05-07 10:41 55.07557 -1.63042 30480 ft 400 kts 255°
2026-05-07 10:41 55.07202 -1.67811 29526 ft 396 kts 271°
2026-05-07 10:41 55.07650 -1.72511 28535 ft 395 kts 287°
2026-05-07 10:42 55.08580 -1.77013 27779 ft 394 kts 288°
2026-05-07 10:42 55.09502 -1.81495 27269 ft 390 kts 288°
2026-05-07 10:42 55.10399 -1.85944 26771 ft 387 kts 288°
2026-05-07 10:42 55.11282 -1.90373 26281 ft 384 kts 287°
2026-05-07 10:43 55.12205 -1.94738 25802 ft 383 kts 292°
2026-05-07 10:43 55.13471 -1.98836 25339 ft 381 kts 298°
2026-05-07 10:43 55.14793 -2.02833 24887 ft 379 kts 298°
2026-05-07 10:43 55.16109 -2.06813 24438 ft 377 kts 298°
2026-05-07 10:44 55.17414 -2.10769 24003 ft 374 kts 298°
2026-05-07 10:44 55.18692 -2.14660 23563 ft 372 kts 297°
2026-05-07 10:44 55.19995 -2.18629 23046 ft 370 kts 297°
2026-05-07 10:44 55.21254 -2.22473 22531 ft 367 kts 297°
2026-05-07 10:45 55.22523 -2.26352 22015 ft 365 kts 297°
2026-05-07 10:45 55.23779 -2.30195 21552 ft 362 kts 297°
2026-05-07 10:45 55.25029 -2.34026 21294 ft 360 kts 297°
2026-05-07 10:45 55.26263 -2.37819 21063 ft 358 kts 297°
2026-05-07 10:46 55.27490 -2.41592 20741 ft 354 kts 297°
2026-05-07 10:46 55.28705 -2.45336 20257 ft 351 kts 297°
2026-05-07 10:46 55.29905 -2.49047 19800 ft 348 kts 297°
2026-05-07 10:46 55.31081 -2.52693 19355 ft 346 kts 297°
2026-05-07 10:47 55.32263 -2.56349 18899 ft 344 kts 297°
2026-05-07 10:47 55.33438 -2.59984 18462 ft 341 kts 297°
2026-05-07 10:47 55.34604 -2.63594 18001 ft 338 kts 297°
2026-05-07 10:47 55.35756 -2.67171 17504 ft 335 kts 297°
2026-05-07 10:48 55.36899 -2.70732 17003 ft 333 kts 296°
2026-05-07 10:48 55.38032 -2.74274 16684 ft 332 kts 296°
2026-05-07 10:48 55.39164 -2.77820 16432 ft 332 kts 296°
2026-05-07 10:48 55.40294 -2.81358 16172 ft 331 kts 296°
2026-05-07 10:49 55.41419 -2.84884 15994 ft 331 kts 296°
2026-05-07 10:49 55.42619 -2.88340 15996 ft 333 kts 305°
2026-05-07 10:49 55.44331 -2.91094 15700 ft 337 kts 325°
2026-05-07 10:49 55.46431 -2.92945 15208 ft 338 kts 331°
2026-05-07 10:50 55.48565 -2.94686 14736 ft 337 kts 332°
2026-05-07 10:50 55.50695 -2.96414 14295 ft 337 kts 332°
2026-05-07 10:50 55.52818 -2.98147 13858 ft 336 kts 332°
2026-05-07 10:50 55.54932 -2.99886 13385 ft 335 kts 332°
2026-05-07 10:51 55.57036 -3.01624 12935 ft 333 kts 331°
2026-05-07 10:51 55.59129 -3.03357 12521 ft 331 kts 331°
2026-05-07 10:51 55.61205 -3.05077 12126 ft 328 kts 331°
2026-05-07 10:51 55.63263 -3.06793 11732 ft 325 kts 329°
2026-05-07 10:52 55.65268 -3.08604 11299 ft 324 kts 332°
2026-05-07 10:52 55.67301 -3.10301 10893 ft 322 kts 332°
2026-05-07 10:52 55.69348 -3.11904 10503 ft 320 kts 333°
2026-05-07 10:52 55.71367 -3.13421 10119 ft 320 kts 338°
2026-05-07 10:53 55.73569 -3.13940 9746 ft 323 kts
2026-05-07 10:53 55.75766 -3.13119 9395 ft 320 kts 14°
2026-05-07 10:53 55.77872 -3.12033 9265 ft 310 kts 14°
2026-05-07 10:53 55.79902 -3.10952 9094 ft 301 kts 15°
2026-05-07 10:54 55.81893 -3.09886 8804 ft 297 kts 15°
2026-05-07 10:54 55.83871 -3.08830 8460 ft 295 kts 14°
2026-05-07 10:54 55.85826 -3.07784 8000 ft 293 kts 15°
2026-05-07 10:54 55.87770 -3.06743 7555 ft 291 kts 15°
2026-05-07 10:55 55.89704 -3.05706 7124 ft 288 kts 15°
2026-05-07 10:55 55.91619 -3.04681 6665 ft 287 kts 15°
2026-05-07 10:55 55.93528 -3.03661 6197 ft 286 kts 15°
2026-05-07 10:55 55.95427 -3.02658 5740 ft 283 kts 14°
2026-05-07 10:56 55.97307 -3.01663 5260 ft 280 kts 15°
2026-05-07 10:56 55.99178 -3.00725 4641 ft 278 kts
2026-05-07 10:56 56.01058 -3.00862 4136 ft 265 kts 340°
2026-05-07 10:56 56.02737 -3.01914 3909 ft 248 kts 335°
2026-05-07 10:57 56.04306 -3.02983 3651 ft 234 kts 334°
2026-05-07 10:57 56.05793 -3.03984 3398 ft 223 kts 335°
2026-05-07 10:57 56.07211 -3.05009 3142 ft 217 kts 326°
2026-05-07 10:57 56.08200 -3.06863 3002 ft 203 kts 288°
2026-05-07 10:58 56.08336 -3.09262 2989 ft 193 kts 251°
2026-05-07 10:58 56.07618 -3.11202 2993 ft 189 kts 216°
2026-05-07 10:58 56.06486 -3.12326 2990 ft 181 kts 206°
2026-05-07 10:58 56.05359 -3.13235 2809 ft 177 kts 205°
2026-05-07 10:59 56.04241 -3.14127 2600 ft 176 kts 205°
2026-05-07 10:59 56.03129 -3.15009 2469 ft 170 kts 204°
2026-05-07 10:59 56.02167 -3.16151 2382 ft 162 kts 225°
2026-05-07 10:59 56.01563 -3.17774 2304 ft 154 kts 236°
2026-05-07 11:00 56.01017 -3.19401 2213 ft 151 kts 235°
2026-05-07 11:00 56.00478 -3.21005 2053 ft 150 kts 235°
2026-05-07 11:00 55.99943 -3.22593 1868 ft 149 kts 234°
2026-05-07 11:00 55.99431 -3.24117 1702 ft 138 kts 235°
2026-05-07 11:01 55.98953 -3.25539 1499 ft 131 kts 235°
2026-05-07 11:01 55.98489 -3.26915 1323 ft 128 kts 235°
2026-05-07 11:01 55.98030 -3.28274 1142 ft 128 kts 235°
2026-05-07 11:01 55.97568 -3.29644 965 ft 128 kts 235°
2026-05-07 11:02 55.97113 -3.30990 779 ft 126 kts 235°
2026-05-07 11:02 55.96655 -3.32346 613 ft 127 kts 235°
2026-05-07 11:02 55.96202 -3.33722 408 ft 127 kts 236°
2026-05-07 11:02 55.95899 -3.34633 281 ft 125 kts 234°
2026-05-07 11:03 55.95439 -3.35960 136 ft 126 kts 235°
2026-05-07 11:03 55.95035 -3.37142 110 ft 90 kts 238°
2026-05-07 11:03 55.94813 -3.37800 114 ft 45 kts 238°
2026-05-07 11:03 55.94726 -3.38050 113 ft 11 kts 231°
2026-05-07 11:04 55.94661 -3.38025 114 ft 11 kts 148°
2026-05-07 11:04 55.94596 -3.37944 113 ft 11 kts 127°
2026-05-07 11:04 55.94613 -3.37822 113 ft 11 kts 58°
2026-05-07 11:04 55.94659 -3.37697 113 ft 13 kts 58°
2026-05-07 11:05 55.94708 -3.37534 115 ft 16 kts 60°
2026-05-07 11:05 55.94772 -3.37345 112 ft 19 kts 59°
2026-05-07 11:05 55.94848 -3.37126 114 ft 22 kts 58°
2026-05-07 11:05 55.94927 -3.36892 115 ft 23 kts 59°
2026-05-07 11:06 55.94992 -3.36704 113 ft 14 kts 59°
2026-05-07 11:06 55.95047 -3.36538 114 ft 17 kts 59°
2026-05-07 11:06 55.95106 -3.36366 114 ft 14 kts 59°
2026-05-07 11:06 55.95136 -3.36233 116 ft 12 kts 96°
2026-05-07 11:07 55.95112 -3.36098 113 ft 12 kts 108°
2026-05-07 11:07 55.95080 -3.35948 114 ft 14 kts 117°
2026-05-07 11:07 55.95035 -3.35833 113 ft 10 kts 153°
2026-05-07 11:07 55.94966 -3.35863 115 ft 11 kts 185°
2026-05-07 11:08 55.94906 -3.35772 115 ft 13 kts 120°
2026-05-07 11:08 55.94866 -3.35647 115 ft 9 kts 122°
2026-05-07 11:08 55.94817 -3.35665 114 ft 6 kts 209°
2026-05-07 11:08 55.94797 -3.35683 114 ft 1 kts 208°
2026-05-07 11:09 55.94795 -3.35686 115 ft 0 kts 208°